Location: Santa Giusta
(39.8800°N, 8.6069°E)
Time: 18:11:49
(UTC+00:00)

Cosmos 1340 Rocket - Pass Details

Date: 02 February 2023
Orbit: 514 x 558 km, 81.2° (Epoch: 01 April)

Event Time Altitude Azimuth Distance (km) Brightness Sun altitude
Rises 17:12:39 0° 191° (S) 2,619 6.7 -5.7°
Reaches altitude 10° 17:14:45 10° 192° (SSW) 1,741 5.8 -6.1°
Maximum altitude 17:18:35 79° 279° (W) 536 2.9 -6.8°
Drops below altitude 10° 17:22:29 10° 7° (N) 1,775 5.2 -7.5°
Sets 17:24:39 0° 8° (N) 2,677 6.1 -7.9°
